Temperature
19 19 19 19 16 14 17 17 17 18 19 21 20 20 19 18 19 19 20 20 21 21 21 20 20 20 19 19 19 18 18 17 17 16 16 16 16 16 16 16 16 16 16 16 16 16 16 16 16
19 19 19 19 14 15 17 16 17 18 19 21 21 20 19 19 19 19 20 20 20 20 20 19 19 19 19 19 18 18 18 18 17 17 16 16 16 15 16 16 16 16 16 16 16 16 16 16 16
19 19 19 14 14 15 17 16 16 18 19 20 20 19 18 16 17 18 19 19 19 19 19 18 18 18 18 18 18 18 17 17 17 17 16 16 15 15 15 15 15 16 16 16 16 16 16 16 16
19 20 19 15 15 16 16 16 16 17 20 19 20 18 17 14 15 16 18 19 18 18 17 17 17 17 17 17 17 17 17 17 17 17 16 16 15 15 15 15 15 15 15 15 16 16 16 16 16
20 20 14 14 16 16 15 16 17 15 16 16 18 17 15 14 15 17 18 18 18 17 17 16 16 16 16 16 16 16 16 16 16 16 16 16 15 15 15 15 15 15 15 15 15 15 15 16 16
20 15 13 15 16 16 16 17 17 15 14 14 15 16 14 12 15 16 16 17 17 16 16 16 16 15 15 15 15 15 15 15 15 15 15 15 15 15 15 15 15 15 15 15 15 15 15 15 15
18 13 14 16 16 16 16 17 15 13 12 11 13 13 13 12 13 14 15 16 16 15 15 15 15 15 15 15 15 15 15 15 15 15 15 15 15 14 14 15 14 14 14 15 15 15 15 15 15
19 13 15 15 16 17 17 17 14 12 10 9 9 8 7 9 11 13 14 15 14 14 14 14 14 14 15 14 14 14 14 14 14 14 14 14 14 14 14 14 14 14 14 14 14 14 14 14 14
19 13 15 17 17 16 15 14 13 10 9 7 7 6 7 8 12 14 14 14 13 13 13 13 13 13 14 14 14 13 13 13 13 14 14 14 14 14 14 14 14 14 14 14 14 14 14 14 14
18 14 17 17 17 15 12 11 10 8 7 7 7 7 8 10 11 11 11 11 11 11 12 12 12 13 13 13 13 13 13 13 13 13 13 13 13 13 13 13 13 13 14 14 14 14 14 13 14
17 16 17 17 17 15 12 8 8 8 6 6 6 6 8 9 9 9 8 9 9 10 11 11 11 12 12 12 13 13 13 13 13 13 13 13 13 13 13 13 13 13 13 13 13 13 13 13 13
16 16 16 15 15 13 11 9 7 7 6 6 6 7 7 8 7 7 7 8 8 9 9 10 10 11 11 11 12 12 12 12 13 13 13 13 13 13 13 13 13 13 13 13 13 13 13 13 13
15 15 12 11 11 9 9 8 7 7 7 7 7 7 7 6 6 6 7 7 8 8 8 9 9 10 10 11 11 11 11 12 12 12 12 12 12 13 13 13 13 13 13 13 13 13 13 13 13
15 14 13 13 12 10 9 8 7 7 7 7 6 6 6 6 6 6 7 7 7 7 7 8 8 8 9 9 10 10 10 11 11 12 12 12 12 12 12 13 13 13 13 13 12 12 12 13 12
16 13 13 13 12 11 9 7 6 7 6 6 6 6 6 6 6 5 5 5 5 6 6 7 7 7 8 8 8 8 9 9 10 10 11 11 11 12 12 12 12 12 12 13 12 12 12 12 12
14 13 13 13 12 11 9 5 7 6 6 5 5 5 5 5 5 5 5 5 5 5 6 6 6 6 7 7 7 7 7 7 8 8 9 10 10 10 11 11 11 12 12 12 12 12 12 12 12
12 13 13 13 10 9 7 5 6 6 5 4 4 5 5 5 4 4 4 4 4 4 4 5 5 5 6 6 6 6 5 5 6 6 6 7 8 8 9 9 10 10 11 11 11 11 11 11 12
14 14 13 12 9 7 5 5 5 5 4 4 4 4 4 4 4 4 4 4 4 4 4 4 4 4 4 4 5 5 5 4 4 4 4 4 5 6 6 7 8 8 9 10 10 10 11 11 11
14 13 12 10 8 6 5 4 4 4 4 3 3 3 3 3 3 3 3 3 3 3 3 3 2 2 2 2 2 2 2 2 2 3 3 3 4 4 5 5 6 7 7 8 9 9 10 10 10
13 12 12 9 8 6 4 4 3 3 3 3 3 3 2 2 2 2 2 2 2 2 1 1 1 -0 -1 -1 -1 -1 -0 0 1 1 2 2 3 3 3 4 4 5 6 7 7 8 9 9 10
12 12 12 10 7 6 5 4 3 3 3 3 3 2 2 2 1 1 1 1 0 0 -0 -0 -1 -1 -2 -2 -2 -1 -1 -0 0 1 1 2 2 2 3 3 3 4 4 5 6 7 7 8 9
11 11 11 10 7 5 5 3 3 2 2 2 2 2 2 1 1 0 -0 -1 -1 -2 -2 -2 -2 -2 -3 -3 -3 -3 -3 -3 -3 -2 -1 0 1 1 2 2 2 3 3 4 5 6 6 7 8
10 9 9 9 7 6 6 4 2 2 1 1 2 2 1 1 0 -1 -1 -2 -3 -3 -3 -3 -3 -4 -4 -4 -4 -4 -4 -5 -4 -4 -3 -2 -1 -0 -0 0 1 1 2 3 3 5 5 6 6
9 9 9 7 7 8 6 5 2 1 1 1 1 1 1 0 -1 -1 -2 -3 -4 -4 -4 -5 -5 -5 -5 -5 -5 -6 -6 -5 -5 -5 -5 -4 -3 -2 -2 -1 -1 -0 0 1 2 3 4 5 6
8 8 9 9 9 8 4 3 1 2 2 2 1 1 0 -1 -2 -3 -3 -4 -5 -5 -5 -6 -6 -6 -6 -6 -6 -7 -7 -7 -6 -6 -6 -6 -5 -5 -4 -3 -2 -2 -1 0 1 2 3 4 5
9 8 8 9 8 6 4 2 1 2 2 2 2 1 -0 -1 -3 -4 -4 -5 -6 -6 -6 -6 -7 -7 -7 -7 -7 -7 -7 -7 -7 -7 -7 -6 -6 -6 -5 -4 -3 -2 -1 -1 0 1 2 3 4
10 7 7 6 6 5 4 1 2 2 1 2 1 0 -1 -2 -3 -4 -5 -5 -6 -6 -7 -7 -8 -8 -8 -8 -8 -8 -8 -8 -7 -7 -7 -7 -6 -6 -5 -4 -4 -2 -2 -1 -0 0 1 2 3
8 6 5 6 7 6 5 2 1 1 -0 -0 0 -0 -1 -2 -4 -4 -5 -6 -7 -7 -8 -8 -8 -9 -9 -9 -9 -9 -8 -8 -8 -7 -7 -7 -7 -6 -6 -5 -4 -3 -2 -1 -1 -0 1 1 2
8 7 4 3 4 5 4 4 1 1 0 -1 -0 -0 -2 -3 -4 -5 -6 -6 -7 -8 -8 -9 -9 -9 -9 -9 -9 -9 -9 -9 -8 -8 -8 -8 -7 -7 -7 -6 -5 -4 -3 -2 -2 -1 0 1 1
6 6 5 5 4 2 2 2 2 1 1 0 -0 -1 -2 -4 -5 -6 -6 -7 -8 -8 -9 -9 -10 -10 -10 -10 -10 -10 -9 -9 -9 -9 -8 -8 -8 -8 -7 -7 -6 -5 -4 -4 -3 -2 -1 -0 0
Wind_Speed
11 6 3 4 6 7 6 7 4 7 7 4 3 7 9 7 7 5 4 3 3 4 7 7 8 7 6 5 4 3 3 2 2 2 3 3 3 4 4 4 5 5 5 5 5 4 3 3 3
5 3 5 6 6 7 6 9 9 8 6 3 4 7 9 9 6 5 8 6 5 5 4 2 5 5 5 5 5 4 4 4 3 3 4 5 6 6 6 6 6 6 7 8 7 6 5 4 4
4 5 5 6 6 5 5 8 7 8 6 5 6 8 7 8 11 11 12 6 8 7 4 2 3 4 4 5 5 5 5 5 5 5 6 7 8 7 5 5 6 7 8 8 8 7 6 5 4
4 6 6 9 10 4 3 6 7 7 9 11 6 8 7 9 13 12 12 10 11 10 10 8 4 4 5 5 6 6 6 6 7 7 7 8 9 8 6 4 5 6 7 8 8 7 7 5 5
5 6 8 8 7 6 6 8 8 9 8 11 8 7 6 13 17 17 18 18 16 13 18 17 14 10 7 6 7 7 7 7 8 8 9 9 10 10 8 6 5 5 6 6 7 7 7 6 5
5 6 7 6 5 6 6 8 6 9 8 10 11 6 7 14 24 21 19 20 20 19 23 25 25 22 17 12 9 8 8 8 9 10 10 10 11 10 10 9 7 6 6 7 7 7 7 7 7
5 6 5 5 4 7 9 6 8 7 11 13 11 6 6 20 22 16 17 21 24 27 27 27 28 27 25 21 18 14 11 11 11 11 11 12 12 11 10 9 8 7 8 9 9 8 7 7 7
5 6 6 4 5 6 8 6 9 14 10 9 10 10 8 16 17 13 20 24 24 25 26 28 30 29 27 24 26 25 22 21 17 14 13 13 12 12 10 9 9 9 9 11 11 11 9 8 7
5 6 5 3 3 4 8 7 8 9 10 12 11 10 8 11 12 23 27 27 26 26 22 26 28 29 28 25 27 28 27 27 25 21 20 16 12 11 11 11 11 11 12 13 13 13 11 10 9
6 5 3 2 3 6 9 10 8 10 15 12 12 14 11 12 22 27 26 25 24 23 21 21 24 27 27 25 24 24 23 24 24 24 23 18 15 12 10 11 12 13 13 14 15 16 14 12 8
6 5 2 5 5 7 8 11 13 8 15 10 10 12 13 20 24 23 20 15 15 13 18 19 22 25 25 22 21 21 21 22 23 25 26 22 17 15 13 10 10 11 11 10 12 12 10 9 7
6 6 6 6 7 8 7 6 12 19 9 6 7 8 14 21 21 19 17 16 15 17 20 19 22 23 23 21 19 20 19 19 19 22 25 21 13 12 11 9 10 9 8 7 7 6 7 7 8
7 6 11 19 26 21 22 17 14 12 8 6 9 15 18 18 15 13 13 16 18 20 21 20 20 22 23 19 18 18 18 18 19 20 23 22 13 9 10 9 10 9 9 7 5 4 5 6 6
5 9 9 9 12 9 18 13 9 8 6 9 14 16 15 16 16 17 20 21 21 20 20 19 16 23 23 18 16 15 17 18 18 19 21 22 18 14 11 9 8 8 10 9 6 6 6 6 5
6 9 9 6 6 6 12 14 7 5 7 12 14 13 15 15 17 16 15 16 16 17 18 19 17 23 21 18 18 17 17 18 16 18 20 21 20 17 14 9 10 9 14 12 8 7 5 6 5
6 7 6 5 5 5 10 8 4 6 9 13 12 12 13 14 13 12 14 14 14 15 17 18 19 19 19 18 18 17 18 17 16 18 19 21 21 20 15 9 10 13 14 8 8 7 6 6 6
8 5 4 4 8 6 9 8 5 8 11 13 11 11 12 13 14 12 13 13 13 14 16 17 17 17 17 18 18 17 17 16 17 18 18 21 21 21 16 9 9 15 10 8 9 7 6 6 7
2 3 3 4 6 9 11 10 8 9 11 11 11 11 13 15 13 12 13 13 14 14 15 15 17 16 16 15 12 10 10 12 15 16 18 22 21 22 18 11 11 13 10 9 9 10 8 7 7
2 3 3 4 5 8 13 12 9 8 9 11 11 12 12 12 11 11 13 15 16 18 19 18 18 17 15 14 14 14 13 12 11 13 20 21 22 22 18 11 10 11 11 11 12 10 10 7 5
4 5 4 5 6 7 11 11 8 8 7 7 8 10 10 11 13 14 14 15 16 16 17 17 17 17 16 15 13 12 12 10 10 14 18 20 22 21 18 13 13 12 12 13 12 11 8 6 5
5 4 2 3 6 6 9 6 5 4 5 7 7 7 9 12 11 12 13 14 15 17 18 18 18 18 16 15 12 14 11 11 12 14 13 17 22 21 18 15 12 13 11 12 13 12 11 10 7
3 2 2 4 6 5 6 5 5 3 6 9 9 10 11 10 10 10 12 15 16 16 16 17 18 18 17 16 16 17 15 15 16 14 14 17 20 19 19 16 13 13 12 13 13 12 10 11 10
5 4 1 3 6 4 2 4 2 2 5 7 9 10 10 10 10 10 12 13 15 16 16 16 18 18 18 17 18 17 16 15 14 15 16 15 13 15 17 17 13 13 13 13 14 15 13 10 10
4 3 3 5 4 2 0 5 1 1 1 5 7 10 11 10 9 9 10 12 13 14 15 17 18 18 18 19 19 18 19 20 20 20 18 16 14 13 15 18 14 14 13 14 15 14 15 12 11
9 8 6 7 4 2 3 4 3 4 2 2 7 10 11 10 9 10 12 13 15 16 17 17 19 19 19 19 19 19 19 19 19 19 18 18 16 16 19 20 18 16 15 15 15 14 14 12 11
5 5 5 2 5 5 2 2 5 5 2 4 6 9 10 9 8 9 10 11 13 15 17 17 19 19 19 19 19 18 18 15 15 18 17 17 15 16 20 21 20 20 18 17 14 13 13 10 10
3 3 2 4 3 5 2 1 3 2 5 7 9 9 9 8 8 9 9 10 12 14 16 17 18 18 19 19 19 17 17 17 17 18 17 15 16 17 20 21 21 20 19 17 14 11 11 10 8
5 6 4 3 4 7 5 4 4 3 8 9 10 11 10 8 8 9 9 11 12 13 14 15 16 17 17 18 17 17 17 17 17 17 18 18 19 19 20 21 21 21 20 18 14 11 10 9 7
4 4 5 4 3 3 6 4 6 4 6 9 11 10 9 9 10 9 9 10 11 11 13 14 16 17 17 17 17 17 16 17 17 16 18 18 18 19 20 20 21 21 20 19 16 14 12 9 6
4 4 4 2 3 4 4 5 5 4 5 8 10 9 7 7 8 8 9 10 11 13 13 14 15 16 17 17 17 16 17 17 17 17 18 18 18 18 19 19 19 20 20 19 18 17 14 10 6
Wind_Direction
338 353 53 52 53 54 44 354 331 338 353 360 53 99 91 73 75 84 321 29 81 115 166 182 179 186 191 197 204 211 226 265 330 350 340 327 307 297 284 269 270 264 257 251 246 242 237 227 212
334 3 48 56 72 61 10 342 351 342 324 320 60 65 56 33 19 11 351 357 55 93 133 149 190 197 205 213 220 224 230 245 271 294 305 305 300 293 284 273 272 272 265 260 254 249 249 242 227
9 47 71 64 63 70 3 334 323 313 349 34 63 53 52 13 352 346 330 4 56 63 63 35 222 224 233 236 238 238 240 244 254 266 277 286 296 291 295 298 292 291 277 263 259 255 251 246 232
50 42 54 67 66 29 341 314 320 347 16 18 48 57 65 35 347 332 346 31 44 34 25 8 322 290 273 266 260 256 255 255 259 264 271 281 295 289 284 300 310 313 296 265 253 256 258 253 240
55 70 61 59 52 359 347 340 348 31 26 5 30 76 49 4 356 7 21 34 36 29 22 14 1 346 322 296 281 271 266 265 268 271 273 278 289 295 286 267 276 300 306 289 266 260 263 265 257
48 62 74 67 34 347 359 349 15 35 19 14 12 65 72 359 7 9 22 35 35 31 25 20 13 8 359 342 319 298 284 278 276 278 277 278 280 289 292 273 259 267 284 288 279 268 266 269 272
82 73 80 86 42 20 358 9 32 29 35 10 350 38 15 360 358 0 25 35 34 30 26 19 15 12 9 6 358 343 328 314 299 291 286 284 284 285 292 287 273 274 280 282 278 271 264 263 270
102 89 63 54 57 24 354 38 48 37 41 10 22 36 6 338 340 8 35 36 33 29 25 19 16 14 11 13 14 12 8 360 345 326 311 297 288 283 286 285 279 277 281 280 273 266 260 258 260
78 71 68 59 79 36 16 50 50 47 55 48 46 39 356 333 5 36 35 32 29 27 24 20 18 16 13 15 15 14 13 9 6 358 346 330 308 292 284 281 279 277 276 275 270 263 257 256 256
64 87 74 37 88 86 53 47 41 58 46 35 30 25 15 26 40 42 36 30 25 21 20 20 19 17 16 16 14 12 10 8 9 7 2 352 340 325 310 294 287 283 282 281 274 264 259 256 253
66 102 56 40 65 83 83 58 33 79 48 24 20 15 24 40 42 41 37 29 21 14 19 18 18 17 18 15 15 13 9 7 7 7 5 0 357 351 342 324 309 301 294 286 278 273 260 250 243
68 45 38 25 48 62 62 77 60 57 69 33 33 35 40 43 38 33 29 23 17 19 16 11 14 15 14 14 14 14 11 9 7 4 6 5 0 355 347 337 323 311 300 289 276 264 257 251 247
56 59 65 80 80 86 86 80 83 58 50 42 49 46 41 39 32 26 27 25 20 17 11 6 8 9 7 8 8 11 9 7 4 5 6 6 1 352 346 338 330 318 307 293 280 265 256 249 246
64 80 98 85 88 78 82 73 77 50 26 43 46 43 36 33 27 26 24 22 18 13 9 3 5 5 1 1 359 0 0 0 2 4 3 4 1 353 346 338 333 326 317 301 285 270 262 255 246
102 96 81 72 98 137 92 58 58 50 43 49 39 34 34 31 29 27 22 19 14 9 6 4 2 1 357 354 352 353 352 354 356 357 358 360 358 353 347 338 334 330 325 311 294 277 261 256 248
66 71 72 33 59 90 88 92 62 43 57 51 35 28 30 28 26 23 21 18 12 7 4 1 360 357 354 351 348 347 346 348 348 349 351 354 353 351 346 336 330 327 324 314 300 282 268 255 245
35 61 69 37 28 57 85 115 74 43 59 51 33 26 25 22 19 16 16 12 7 4 359 356 356 355 352 349 346 343 343 343 343 344 347 348 347 346 342 331 326 327 322 315 306 294 266 258 251
1 43 48 45 32 62 90 101 73 47 59 49 32 24 21 18 8 2 6 5 2 1 358 355 355 355 352 349 345 342 340 341 340 341 343 342 342 341 338 330 329 328 324 319 314 301 283 260 252
164 115 87 59 59 78 98 98 76 53 51 43 31 21 12 3 352 0 5 4 2 1 359 356 355 354 355 353 350 345 342 340 337 340 339 338 337 337 334 331 328 327 322 314 309 302 291 273 248
96 102 92 93 74 95 103 90 69 51 52 44 30 15 360 354 357 359 0 0 358 356 354 354 353 351 354 352 347 341 335 334 334 336 333 334 334 332 333 331 327 323 321 316 312 306 292 279 238
45 103 142 140 76 90 114 100 93 50 48 39 22 4 358 1 351 350 355 356 354 355 353 351 349 349 351 351 350 346 342 340 342 338 335 333 330 328 326 326 324 320 318 313 310 302 290 282 266
333 344 276 179 149 178 157 166 173 118 38 18 2 355 351 348 348 351 355 355 354 351 349 348 348 348 350 352 352 349 347 342 336 333 327 325 325 324 325 324 322 318 315 311 309 304 290 279 271
278 312 249 166 154 119 137 147 198 59 26 358 346 342 337 338 346 350 353 352 351 351 349 348 347 349 351 352 352 347 343 339 334 333 328 327 324 323 325 324 321 318 315 309 307 304 291 278 266
316 22 92 68 95 145 224 178 229 18 32 329 334 333 331 334 344 347 350 353 352 350 352 351 348 348 349 350 349 346 343 340 338 337 336 335 332 330 328 328 324 317 313 309 306 302 292 280 268
26 43 18 3 360 289 77 106 187 182 180 322 328 326 326 333 346 348 352 354 353 352 354 350 348 348 349 349 347 344 344 340 337 336 334 334 334 335 334 333 327 321 313 307 303 299 290 280 270
26 73 98 288 281 295 40 163 212 190 219 298 310 311 320 333 346 346 350 352 352 352 354 351 349 348 348 348 346 343 344 341 336 333 332 332 333 332 333 332 327 321 315 310 304 300 290 282 269
78 80 136 160 285 281 261 195 241 236 314 311 310 315 324 333 341 342 350 354 354 355 354 349 347 347 347 346 343 342 343 341 337 334 333 334 333 333 335 333 331 326 322 314 307 301 294 285 272
92 130 83 75 331 303 290 222 211 281 305 310 317 322 327 338 342 347 355 357 356 355 350 347 347 345 343 343 342 342 340 340 338 337 337 337 336 336 337 338 337 336 334 330 320 308 301 289 282
40 63 88 102 159 234 292 271 172 217 289 306 310 314 327 339 343 350 355 355 352 351 349 346 347 346 344 342 341 339 339 340 339 339 337 337 336 337 339 341 342 343 345 344 339 330 319 304 294
101 104 121 137 251 205 234 265 167 194 285 298 303 313 328 335 340 348 351 352 350 349 348 346 346 345 343 341 340 339 339 340 341 340 338 337 337 338 339 341 344 346 348 352 350 346 341 335 322
Height
1515 1513 1512 1513 1517 1529 1533 1530 1526 1523 1519 1519 1519 1520 1522 1526 1531 1538 1535 1532 1532 1531 1530 1530 1529 1529 1529 1528 1528 1528 1528 1528 1528 1528 1529 1529 1529 1530 1530 1530 1530 1531 1531 1531 1531 1531 1531 1532 1532
1514 1513 1515 1515 1527 1543 1540 1532 1528 1525 1522 1521 1521 1523 1525 1530 1534 1536 1536 1535 1535 1534 1533 1532 1532 1531 1530 1530 1529 1529 1529 1528 1528 1528 1528 1528 1528 1529 1529 1529 1529 1529 1529 1530 1530 1530 1530 1531 1531
1514 1514 1516 1521 1537 1546 1542 1534 1530 1525 1523 1522 1524 1528 1533 1539 1539 1539 1539 1538 1537 1536 1536 1535 1534 1533 1532 1531 1530 1530 1529 1528 1528 1527 1527 1527 1527 1528 1527 1527 1528 1528 1528 1528 1528 1529 1529 1529 1530
1516 1517 1519 1530 1542 1541 1539 1535 1530 1526 1524 1524 1526 1533 1541 1547 1545 1543 1540 1539 1538 1538 1537 1536 1535 1534 1533 1532 1530 1530 1529 1528 1527 1527 1526 1526 1526 1526 1526 1526 1526 1526 1526 1527 1527 1527 1527 1528 1529
1517 1518 1530 1541 1542 1540 1537 1535 1532 1530 1531 1532 1531 1539 1545 1547 1546 1543 1540 1539 1538 1538 1537 1536 1535 1534 1533 1532 1531 1529 1528 1527 1526 1526 1525 1525 1525 1525 1524 1524 1524 1524 1524 1524 1525 1525 1526 1526 1527
1519 1522 1542 1550 1545 1542 1539 1537 1535 1535 1536 1536 1538 1542 1551 1552 1545 1543 1541 1539 1538 1537 1536 1535 1534 1533 1532 1531 1531 1530 1528 1527 1526 1525 1524 1523 1523 1522 1522 1522 1522 1522 1522 1522 1522 1523 1523 1524 1525
1523 1532 1545 1546 1547 1545 1542 1540 1542 1542 1543 1547 1546 1547 1552 1551 1548 1546 1543 1540 1539 1537 1536 1535 1534 1533 1532 1531 1530 1529 1528 1527 1525 1524 1523 1521 1521 1520 1520 1520 1520 1520 1520 1520 1520 1520 1521 1521 1522
1526 1533 1546 1548 1548 1548 1545 1545 1549 1550 1555 1556 1553 1557 1561 1559 1554 1550 1545 1541 1540 1539 1537 1536 1535 1533 1532 1530 1529 1527 1526 1525 1523 1522 1521 1520 1519 1518 1518 1518 1517 1517 1517 1517 1517 1518 1518 1518 1519
1528 1542 1550 1547 1547 1548 1548 1549 1556 1563 1563 1564 1566 1568 1569 1564 1557 1549 1545 1543 1542 1541 1540 1538 1536 1534 1532 1530 1529 1527 1525 1524 1522 1520 1519 1518 1517 1516 1516 1515 1515 1514 1514 1514 1514 1514 1515 1515 1515
1532 1548 1546 1544 1545 1549 1553 1556 1561 1567 1566 1569 1571 1571 1569 1563 1555 1550 1549 1548 1546 1544 1543 1541 1538 1536 1534 1531 1529 1527 1525 1523 1521 1519 1518 1516 1515 1514 1513 1513 1513 1512 1512 1511 1511 1511 1512 1512 1512
1537 1545 1545 1546 1547 1550 1555 1563 1567 1567 1577 1580 1579 1575 1570 1563 1558 1557 1556 1555 1553 1550 1547 1543 1540 1538 1535 1532 1530 1527 1525 1523 1521 1518 1516 1515 1513 1512 1511 1510 1510 1509 1509 1509 1508 1508 1508 1508 1509
1541 1546 1547 1549 1549 1552 1559 1567 1574 1575 1585 1585 1582 1578 1572 1566 1564 1563 1562 1560 1557 1553 1549 1546 1543 1539 1536 1533 1530 1527 1525 1522 1520 1517 1515 1513 1511 1510 1508 1507 1507 1506 1506 1505 1505 1505 1505 1505 1505
1545 1550 1554 1555 1555 1561 1565 1572 1577 1586 1588 1586 1583 1577 1574 1572 1570 1569 1566 1563 1559 1555 1551 1548 1545 1541 1537 1534 1530 1527 1524 1521 1518 1516 1513 1511 1509 1507 1506 1504 1503 1502 1502 1501 1501 1501 1500 1500 1501
1549 1552 1556 1559 1559 1565 1567 1576 1581 1590 1589 1586 1582 1580 1578 1576 1574 1571 1567 1564 1560 1557 1554 1550 1546 1542 1538 1534 1530 1527 1524 1520 1517 1514 1511 1508 1506 1504 1502 1501 1499 1498 1497 1496 1496 1496 1496 1495 1495
1549 1554 1558 1562 1562 1567 1567 1584 1590 1592 1590 1587 1585 1584 1582 1580 1577 1574 1572 1568 1564 1560 1556 1551 1546 1542 1538 1533 1529 1525 1522 1518 1515 1511 1508 1505 1502 1499 1497 1495 1494 1493 1492 1491 1490 1490 1490 1490 1490
1550 1557 1564 1564 1564 1567 1572 1595 1595 1595 1592 1590 1589 1587 1585 1583 1581 1578 1575 1571 1566 1562 1557 1552 1547 1542 1537 1532 1527 1523 1519 1515 1511 1508 1504 1501 1497 1494 1492 1490 1488 1486 1485 1484 1484 1483 1483 1483 1484
1560 1564 1566 1567 1568 1569 1576 1593 1597 1597 1594 1593 1592 1590 1588 1585 1582 1579 1576 1572 1567 1562 1556 1551 1545 1539 1534 1529 1524 1520 1516 1511 1507 1504 1500 1496 1492 1489 1486 1483 1481 1479 1478 1477 1477 1476 1476 1476 1476
1565 1565 1567 1571 1574 1577 1584 1595 1600 1600 1597 1596 1595 1593 1590 1587 1585 1581 1577 1572 1567 1562 1556 1550 1544 1538 1532 1526 1521 1516 1511 1507 1503 1499 1496 1491 1487 1483 1480 1476 1474 1472 1470 1469 1469 1468 1468 1468 1469
1562 1565 1570 1575 1578 1585 1592 1599 1603 1602 1599 1598 1597 1594 1592 1590 1587 1582 1578 1572 1566 1560 1554 1548 1541 1535 1529 1522 1516 1511 1506 1501 1498 1494 1491 1487 1483 1478 1474 1470 1467 1465 1463 1462 1461 1461 1460 1460 1462
1563 1568 1572 1579 1582 1588 1597 1603 1605 1604 1603 1602 1600 1597 1594 1590 1586 1582 1577 1571 1565 1559 1553 1546 1540 1534 1528 1522 1516 1511 1505 1499 1495 1490 1487 1483 1478 1473 1469 1465 1461 1458 1456 1454 1454 1454 1452 1452 1455
1567 1568 1570 1576 1586 1590 1595 1605 1608 1607 1605 1603 1601 1598 1595 1591 1586 1581 1576 1571 1565 1558 1552 1546 1539 1533 1527 1520 1514 1507 1501 1495 1490 1485 1481 1477 1473 1468 1464 1459 1455 1452 1449 1447 1446 1446 1445 1444 1446
1572 1568 1570 1573 1583 1592 1593 1606 1608 1607 1605 1602 1600 1597 1594 1591 1587 1582 1576 1570 1564 1558 1552 1545 1538 1532 1525 1519 1512 1505 1499 1493 1487 1482 1477 1472 1468 1463 1458 1454 1449 1446 1443 1440 1439 1438 1438 1437 1437
1569 1568 1569 1570 1578 1587 1589 1598 1607 1606 1606 1604 1601 1598 1594 1590 1586 1581 1576 1570 1564 1557 1550 1543 1537 1530 1523 1517 1510 1504 1498 1491 1485 1479 1473 1467 1462 1457 1453 1448 1443 1439 1436 1433 1431 1430 1429 1429 1429
1569 1569 1569 1575 1579 1582 1587 1594 1606 1608 1606 1604 1601 1597 1593 1589 1584 1580 1574 1568 1561 1554 1548 1541 1534 1528 1521 1515 1508 1502 1496 1488 1481 1475 1469 1463 1457 1452 1447 1442 1437 1433 1429 1426 1424 1422 1421 1421 1421
1572 1577 1580 1578 1579 1582 1596 1601 1609 1605 1604 1603 1600 1596 1592 1587 1583 1577 1571 1564 1558 1551 1545 1538 1531 1525 1519 1513 1506 1501 1494 1487 1481 1474 1468 1461 1454 1448 1442 1437 1432 1428 1424 1421 1418 1415 1414 1413 1413
1579 1581 1591 1594 1590 1592 1595 1603 1609 1604 1603 1601 1599 1595 1591 1586 1581 1576 1570 1564 1557 1550 1543 1536 1529 1523 1517 1510 1504 1499 1493 1486 1480 1474 1468 1461 1455 1447 1441 1434 1429 1424 1419 1415 1412 1409 1407 1406 1406
1579 1588 1587 1596 1597 1599 1596 1606 1604 1602 1601 1599 1596 1592 1588 1584 1579 1574 1568 1562 1556 1549 1542 1535 1528 1522 1515 1509 1503 1497 1491 1484 1478 1472 1466 1460 1453 1446 1440 1433 1426 1421 1415 1411 1407 1403 1401 1400 1399
1582 1587 1593 1593 1594 1592 1589 1602 1604 1603 1601 1597 1593 1589 1585 1581 1577 1572 1567 1561 1554 1548 1541 1534 1528 1521 1515 1508 1502 1496 1489 1483 1476 1470 1463 1457 1451 1444 1438 1431 1424 1418 1412 1407 1402 1399 1396 1395 1393
1585 1589 1595 1603 1602 1603 1602 1596 1600 1600 1598 1596 1592 1588 1584 1579 1575 1571 1565 1560 1553 1547 1539 1533 1526 1519 1513 1507 1501 1494 1488 1481 1475 1468 1461 1455 1448 1443 1436 1430 1423 1417 1411 1405 1400 1396 1393 1390 1389
1588 1590 1594 1599 1601 1607 1612 1604 1597 1597 1596 1594 1590 1586 1582 1578 1574 1570 1564 1558 1551 1544 1537 1531 1525 1518 1512 1505 1499 1493 1487 1480 1473 1466 1460 1453 1447 1441 1436 1430 1423 1417 1411 1405 1399 1394 1390 1388 1386